Location: Comstock Ranch
(38.0499°N, 120.2627°W)
Time: 20:14:30
(UTC+00:00)

IRAS Rocket - Pass Details

Date: 08 September 2024
Orbit: 846 x 877 km, 100.1° (Epoch: 11 October)

Event Time Altitude Azimuth Distance (km) Brightness Sun altitude
Rises 11:58:00 0° 11° (N) 3,462 7.9 -19.6°
Reaches altitude 10° 12:00:25 10° 9° (N) 2,517 7.1 -19.2°
Maximum altitude 12:05:56 65° 289° (WNW) 947 4.2 -18.2°
Enters shadow 12:09:30 22° 213° (SSW) 1,784 5.4 -17.5°
